Theta_e
307 306 307 307 307 308 308 309 309 309 309 309 312 310 309 308 309 303 299 302 303 296 299 304 306 299 299 297 293 296 301 301 300 295 296 295 294 296 295 298 296 295 293 296 297 291 291 311 312 303 307 313 315 316
306 307 306 306 307 308 308 309 309 308 309 309 310 309 308 308 309 306 295 305 308 302 299 305 307 308 306 304 299 297 301 301 302 298 297 297 296 296 294 293 304 297 302 299 300 300 306 312 311 315 315 314 314 315
306 307 306 307 307 307 308 308 309 309 309 309 309 308 307 308 310 306 299 303 302 297 296 298 296 300 306 306 306 296 301 306 305 306 302 299 296 299 294 296 298 303 307 303 303 307 308 311 314 316 316 314 316 317
307 307 307 307 307 307 307 308 308 308 308 309 309 309 308 311 311 306 299 302 301 297 291 295 306 303 309 306 306 304 301 304 302 304 301 300 298 305 300 301 298 302 305 302 303 307 307 308 308 308 309 310 310 310
306 306 307 307 307 307 307 308 308 308 308 308 308 309 309 309 309 305 302 303 303 298 292 294 300 304 305 306 307 304 302 300 298 297 300 298 303 302 303 302 298 304 303 300 300 307 306 305 310 312 306 306 307 306
305 306 306 306 306 307 307 307 308 308 308 308 307 309 309 310 309 302 296 300 303 302 295 291 299 302 304 305 305 303 303 300 299 299 298 301 305 302 297 296 303 307 309 309 306 312 311 313 314 313 306 307 309 307
304 304 305 306 306 306 306 307 308 309 309 308 309 308 309 309 300 297 294 299 304 302 296 293 292 298 303 304 302 302 302 300 299 296 296 299 301 303 298 295 305 308 311 310 311 311 309 311 310 309 309 309 309 308
303 303 304 305 306 306 307 307 308 308 307 308 308 308 307 306 303 298 302 306 303 300 298 290 291 295 302 298 297 300 298 298 297 295 295 295 298 297 293 299 305 308 309 308 307 307 305 307 308 307 307 307 305 304
303 302 302 303 305 306 307 307 307 307 307 307 307 307 301 298 298 301 311 308 302 301 293 293 288 292 299 296 297 299 298 294 297 293 293 294 291 291 296 302 304 306 303 302 303 305 305 304 304 305 305 305 303 303
302 303 302 302 303 305 306 307 307 307 307 306 300 297 293 298 309 309 301 295 296 295 296 292 294 291 297 296 296 298 295 292 290 294 296 291 289 296 300 303 305 306 305 304 302 300 302 302 303 303 303 304 303 303
302 302 303 302 302 304 306 307 307 306 302 297 295 295 299 309 300 297 292 289 290 289 291 293 292 292 296 293 296 297 293 294 288 292 293 289 292 298 303 304 305 303 304 303 304 303 303 304 303 302 302 303 303 302
302 302 303 303 303 304 306 306 305 299 298 299 299 301 300 297 293 291 290 291 290 288 290 289 290 294 295 299 296 296 292 293 289 295 291 290 296 300 303 303 303 304 305 305 306 304 304 303 303 303 302 301 300 301
304 303 304 304 304 303 306 306 305 306 305 302 299 297 292 291 282 287 286 288 288 291 291 291 290 295 296 297 293 293 291 290 295 290 292 297 298 302 302 303 302 303 305 305 305 305 305 304 304 302 301 301 301 301
304 304 304 304 304 303 305 306 306 305 298 294 292 283 286 286 288 289 290 291 294 293 291 290 289 294 293 293 293 290 292 293 288 286 289 295 298 300 301 301 302 302 304 303 303 303 303 303 302 302 301 301 300 299
304 304 304 304 304 304 305 306 306 302 298 295 293 283 288 292 293 293 293 292 293 294 293 293 293 293 291 291 291 291 289 288 289 288 293 296 299 302 302 303 301 301 301 300 301 301 302 302 300 299 300 299 299 299
304 303 300 304 304 304 305 305 302 300 298 297 295 291 292 290 289 291 291 291 294 295 294 294 292 290 290 290 288 287 287 285 290 294 296 300 302 304 302 302 302 302 301 300 300 301 301 299 299 299 300 300 299 299
304 299 304 304 304 304 305 301 299 297 295 294 292 294 292 292 292 294 293 293 299 297 291 292 292 288 291 288 286 290 288 292 295 297 298 300 300 302 303 304 303 302 301 300 299 299 299 299 299 299 298 298 299 299
299 302 304 304 302 302 300 300 297 295 292 293 291 292 293 295 294 295 297 297 296 294 293 292 295 289 287 287 289 293 295 296 297 298 300 302 301 302 303 301 302 301 300 300 300 299 299 298 296 297 297 298 298 298
301 301 304 304 302 298 295 295 297 291 291 293 294 295 294 295 297 298 298 298 297 297 296 294 292 289 290 293 294 294 296 297 297 300 298 299 300 301 302 302 302 299 299 299 298 298 299 299 300 301 299 298 297 297
303 303 303 303 303 296 294 293 298 293 290 292 296 294 295 295 296 297 297 298 296 294 293 292 292 294 294 296 297 298 298 299 299 297 296 297 299 301 301 300 299 298 298 298 298 296 297 297 298 301 301 296 297 297
299 299 302 301 299 297 294 292 292 293 292 291 294 294 293 295 293 293 293 297 293 291 291 295 296 297 297 299 299 300 300 301 300 299 298 297 298 299 300 300 300 300 299 297 296 297 296 297 298 297 297 297 299 298
296 303 299 301 296 296 292 295 292 293 291 291 292 293 291 291 292 295 297 294 292 293 295 297 297 298 299 300 300 300 301 301 300 299 297 297 298 297 298 301 303 301 299 298 297 298 298 302 301 299 300 297 299 299
300 300 299 298 293 288 287 294 291 291 288 289 291 289 289 290 292 297 292 292 292 295 298 298 300 300 300 301 301 300 301 300 298 297 298 298 298 298 297 298 300 299 297 297 298 298 298 298 300 303 300 298 298 300
300 295 291 290 287 283 290 287 289 288 288 286 286 285 287 288 292 290 287 289 294 296 298 299 300 298 297 297 296 297 297 298 297 297 298 300 298 296 298 298 298 298 298 298 298 298 298 300 298 301 303 301 298 298
284 283 285 279 290 288 285 287 287 284 284 286 286 285 288 291 286 286 286 290 292 296 297 298 297 297 295 294 294 296 298 297 297 296 297 298 300 298 296 297 297 298 300 299 300 301 300 301 301 302 303 303 299 300
282 287 283 288 287 286 287 285 285 286 286 285 286 289 291 289 288 287 289 293 293 295 296 297 296 295 295 296 295 296 297 298 298 297 298 299 298 298 296 295 295 297 300 301 301 302 303 303 301 302 302 300 294 303
286 287 289 292 290 290 288 289 291 288 286 286 289 289 290 287 288 290 296 297 296 297 299 299 298 297 296 296 297 298 299 299 298 298 300 300 299 299 298 297 296 298 301 302 303 304 303 302 300 299 299 301 300 302
290 292 289 293 293 292 291 291 289 290 290 292 292 289 289 289 287 295 296 299 299 298 298 298 299 302 302 302 302 302 299 299 300 299 298 298 298 299 300 300 301 293 301 304 303 303 303 305 304 301 299 298 299 301
290 294 296 293 294 293 291 290 292 295 295 293 292 291 293 296 298 298 297 298 298 300 298 298 299 302 300 298 298 297 298 298 296 293 292 293 297 300 304 305 305 302 303 303 290 297 304 305 303 302 302 300 300 299
290 296 294 295 293 292 294 294 295 297 296 297 297 296 296 297 298 299 299 298 298 299 298 298 298 298 296 296 295 296 298 299 299 299 296 298 300 302 304 305 304 303 306 306 304 300 288 296 296 302 302 300 300 297
298 296 293 293 293 295 296 297 298 299 298 295 295 293 292 294 296 297 298 300 301 302 301 298 296 296 297 296 295 295 297 302 302 305 304 304 304 304 305 304 303 305 305 306 303 300 299 299 302 303 303 302 300 297
298 297 295 292 292 296 298 296 296 295 294 294 293 294 294 293 291 294 297 297 296 296 294 296 298 299 300 299 300 303 293 302 303 304 306 304 305 305 305 304 307 307 307 305 302 301 301 300 301 301 302 302 301 300
295 297 295 293 293 293 295 295 294 293 293 293 293 294 293 293 292 296 300 301 298 298 298 300 300 299 300 299 298 299 296 303 300 291 289 289 289 294 297 299 303 306 307 306 303 301 300 301 301 302 303 302 302 300
Wind_Speed
8 10 10 11 11 14 18 19 17 17 16 15 17 17 14 9 8 4 3 2 3 1 5 2 2 1 4 3 3 5 4 5 5 5 2 1 0 1 2 2 1 1 3 2 4 3 6 3 3 5 5 5 5 6
7 7 7 7 9 11 14 14 13 13 13 13 13 12 12 9 9 6 1 2 2 2 5 3 9 10 9 10 2 3 3 2 3 4 1 1 1 2 0 2 3 2 4 4 6 6 3 5 7 2 6 8 3 5
6 7 6 8 8 9 11 11 12 12 12 12 12 11 9 10 10 7 2 2 3 2 5 3 6 2 4 7 6 4 2 3 1 4 3 2 2 2 1 3 3 4 5 4 4 5 8 8 6 1 6 3 4 4
8 7 7 7 9 8 9 9 10 10 10 10 10 9 6 7 8 5 1 1 3 2 1 7 4 8 3 6 8 4 3 4 4 2 2 2 2 2 2 3 2 2 1 2 3 6 12 6 6 5 4 6 6 4
11 8 7 8 8 8 8 9 10 10 9 9 8 9 7 7 7 2 2 2 2 4 2 5 7 5 5 6 8 6 4 3 2 2 2 3 2 2 1 0 3 4 4 3 2 2 4 7 8 9 5 8 7 5
10 9 8 7 7 7 7 8 9 10 10 8 7 8 7 10 8 1 2 2 3 4 2 3 4 5 3 4 7 6 4 3 3 3 3 2 3 4 3 2 3 2 1 5 7 8 3 11 9 7 7 8 7 7
8 10 9 7 6 7 7 8 10 9 8 8 9 8 7 7 2 3 4 3 1 2 2 4 5 5 2 4 3 2 2 1 3 1 2 2 2 4 2 2 4 6 7 3 4 5 2 6 4 7 3 7 11 11
5 6 8 8 6 6 7 6 9 10 9 10 11 9 7 5 3 4 3 5 4 4 2 0 5 4 1 2 1 1 2 2 1 2 1 2 2 2 2 6 3 4 2 4 7 6 3 6 8 7 6 11 18 15
2 3 5 6 5 5 7 9 10 10 11 12 10 8 3 1 1 3 3 7 2 4 1 1 2 3 4 1 1 2 2 1 1 1 3 3 1 3 5 7 6 5 2 7 10 10 10 13 11 11 12 13 15 12
3 3 2 2 3 4 9 9 9 11 13 11 3 1 2 4 5 3 4 3 4 3 2 2 1 3 3 1 1 1 2 2 1 4 2 3 3 4 5 3 4 3 6 9 15 7 10 10 10 11 11 9 9 8
8 6 5 3 2 4 8 9 11 14 6 1 2 2 3 1 4 3 2 3 1 2 2 4 5 1 2 3 3 1 2 1 1 5 3 2 3 4 5 7 7 8 10 9 11 10 9 10 9 9 9 8 7 6
12 10 7 5 4 4 9 12 11 3 2 2 1 2 1 3 3 2 2 0 3 6 3 4 5 5 2 2 4 2 2 2 3 1 3 2 4 3 6 9 8 10 12 12 12 13 9 9 7 8 6 6 5 6
15 12 8 7 5 3 7 10 8 6 5 1 1 2 3 1 3 5 6 3 3 3 4 2 1 2 2 4 4 2 2 4 1 3 1 3 3 1 3 7 9 9 11 12 11 10 10 9 6 6 6 4 6 6
15 13 11 9 7 6 6 7 5 3 2 1 3 2 4 3 4 5 4 4 5 2 4 3 2 2 1 3 2 3 3 2 2 1 4 3 3 2 4 5 12 7 8 9 8 7 8 8 7 6 6 6 6 6
16 14 12 9 9 8 5 8 6 1 2 1 1 2 4 4 4 4 4 2 3 2 4 4 4 3 2 4 0 3 2 2 4 4 3 3 4 5 6 7 8 7 6 7 6 6 6 6 6 6 5 6 6 6
18 14 4 12 11 10 9 8 1 1 1 2 2 2 3 0 4 3 2 3 1 2 2 4 3 3 1 3 2 3 4 4 3 2 2 5 8 8 4 5 6 6 7 7 6 5 6 6 6 6 5 6 5 5
11 2 16 14 12 9 7 1 2 2 2 2 2 1 2 3 3 3 2 2 2 3 3 3 3 2 2 3 2 2 3 3 3 3 2 4 6 8 7 8 8 7 6 6 5 4 4 4 6 5 6 2 4 4
3 12 17 14 8 5 0 2 1 1 2 2 2 4 3 2 2 2 4 3 2 3 3 3 4 3 2 3 2 2 1 1 3 3 4 4 6 6 7 8 6 6 6 6 5 4 4 5 5 4 5 4 4 3
10 11 16 11 2 3 4 2 1 1 2 2 3 2 2 3 2 3 3 3 1 2 5 3 4 3 3 3 3 3 1 2 4 2 2 3 6 7 7 6 6 5 6 5 4 3 2 3 4 4 4 4 4 2
12 10 5 2 4 2 2 1 2 2 3 3 3 4 2 2 3 3 4 5 3 3 5 3 3 3 4 3 3 3 4 4 5 4 2 2 2 6 6 7 5 5 5 4 3 3 2 2 1 3 4 4 4 3
6 3 5 2 3 3 2 2 2 1 2 1 2 3 3 3 2 3 3 3 5 1 1 2 2 2 2 3 2 2 4 5 4 5 5 4 3 4 4 4 5 4 3 4 5 2 2 3 3 4 4 3 3 2
2 2 1 3 3 2 3 1 2 2 0 2 3 2 2 2 2 1 2 4 1 3 3 4 3 3 3 3 3 2 4 5 4 4 5 6 4 3 3 4 5 4 4 3 4 5 4 3 3 4 4 3 3 3
3 4 1 1 1 4 2 2 2 3 3 4 3 4 3 2 1 2 2 2 4 3 3 3 3 1 3 3 5 4 4 6 4 3 3 3 2 2 3 3 3 4 4 3 3 4 4 5 5 4 4 4 3 3
3 2 1 1 3 1 3 4 3 2 2 2 1 2 2 2 2 2 3 3 4 1 3 5 4 4 3 4 3 2 2 3 4 3 3 5 4 2 3 3 2 2 3 3 4 3 4 4 4 4 5 4 4 4
5 5 4 3 2 3 1 0 1 2 1 2 1 3 3 1 0 2 3 4 1 3 3 3 3 3 4 2 1 1 0 3 4 4 1 2 3 3 1 1 2 3 3 3 3 4 4 4 4 4 5 5 6 6
1 3 5 4 2 3 4 3 5 5 3 3 4 3 1 2 2 5 4 3 4 4 4 5 5 4 2 3 4 3 3 3 5 3 2 3 4 4 4 4 3 3 3 4 4 5 5 4 4 6 5 7 6 5
4 5 4 4 3 3 2 2 2 3 4 5 3 3 3 3 5 4 2 2 2 4 4 5 5 5 5 4 2 2 3 3 3 3 3 3 3 3 4 4 5 4 3 5 4 4 5 5 5 6 5 2 5 5
6 3 5 3 3 3 1 0 3 5 5 4 2 4 3 3 4 3 3 1 2 4 4 3 3 4 4 4 4 4 4 3 5 4 3 2 2 2 3 3 3 3 2 3 5 4 5 5 6 6 6 6 5 5
4 3 5 5 3 3 4 5 4 3 3 3 2 2 2 2 2 1 1 2 2 5 5 5 4 4 4 4 3 2 3 4 5 4 4 3 2 3 4 4 3 3 3 3 3 4 6 5 6 6 7 6 5 4
5 4 4 6 4 7 6 8 4 3 3 3 2 1 2 3 2 1 4 3 4 4 4 4 4 4 4 4 2 2 3 4 4 4 4 4 4 2 2 3 3 4 3 4 4 3 2 2 2 2 4 4 4 4
3 2 2 2 3 3 5 4 2 2 3 2 1 3 2 1 3 2 2 2 3 4 4 4 2 3 4 4 3 3 3 3 4 5 4 3 3 3 3 3 4 4 4 4 4 4 4 3 5 5 7 7 7 6
3 4 3 3 3 1 2 2 2 1 1 2 1 2 1 3 1 3 2 3 3 2 3 4 5 4 4 2 3 2 3 2 3 3 3 3 3 3 3 3 3 4 4 4 5 4 5 5 4 5 5 8 7 7
2 2 3 2 1 2 2 3 3 3 2 3 3 4 4 5 4 3 1 1 3 4 5 4 3 3 5 5 4 3 4 3 3 3 4 5 5 4 3 3 3 5 6 5 4 5 6 5 4 5 3 5 6 7
Wind_Direction
55 72 51 69 76 90 98 104 118 131 138 156 161 153 151 162 161 110 252 193 132 155 275 277 305 6 351 40 80 291 32 351 32 58 76 327 78 328 349 359 92 135 55 45 303 278 289 307 15 143 222 335 160 129
42 83 95 82 103 105 114 120 126 125 125 129 142 151 166 181 175 127 319 316 144 150 244 264 249 225 193 216 149 356 164 175 170 89 44 188 44 24 263 205 253 156 106 277 211 223 317 287 266 177 55 252 244 143
71 63 94 132 114 110 116 126 133 132 131 136 143 161 180 185 176 145 218 306 65 50 311 0 266 290 196 198 164 126 279 171 131 180 155 163 115 150 8 279 302 189 137 208 276 316 350 340 2 123 218 202 231 165
67 62 68 104 123 126 124 127 134 141 147 150 154 154 171 141 136 132 205 243 97 122 153 278 304 293 242 148 170 173 155 57 107 95 117 134 214 231 153 245 243 266 62 109 13 11 349 351 356 356 331 55 45 28
53 66 77 85 110 121 131 142 145 139 134 135 140 159 162 160 154 125 254 234 142 124 213 278 301 264 265 169 173 137 122 108 79 42 102 212 185 125 302 196 240 182 200 141 91 37 286 288 331 338 14 25 25 47
61 61 67 89 109 118 134 135 136 143 150 154 154 146 171 165 147 129 348 324 187 171 77 319 298 299 319 156 156 142 139 112 114 148 227 235 238 119 168 253 263 185 145 182 155 195 232 287 313 351 10 12 8 15
59 66 57 74 109 130 128 144 147 146 153 158 140 126 121 128 92 179 191 209 131 99 87 322 322 280 215 79 43 100 71 146 126 185 241 214 233 119 131 232 240 168 177 199 153 143 185 260 227 357 43 61 55 51
58 60 69 59 76 123 126 145 143 149 149 142 128 125 127 156 273 320 269 243 167 94 82 242 273 353 74 115 223 33 102 32 340 225 338 179 70 86 250 256 172 154 228 244 189 211 148 113 83 59 50 66 57 47
91 82 73 70 80 106 146 145 143 145 142 131 124 123 92 59 175 240 111 120 69 126 185 156 195 211 347 77 122 41 95 105 307 219 254 96 4 216 241 183 185 160 186 126 81 84 95 83 75 65 66 59 68 53
205 159 143 96 85 102 148 143 149 138 125 119 83 94 153 222 223 89 17 38 15 333 52 227 194 262 100 40 15 106 60 166 144 250 76 92 252 287 320 16 68 136 106 117 100 87 92 77 76 69 65 65 70 65
200 195 173 163 126 85 144 144 128 110 71 86 124 208 247 34 63 38 85 121 228 259 205 233 193 236 306 119 153 98 176 57 98 265 129 13 328 310 331 77 75 76 82 68 88 82 79 100 105 97 82 79 76 69
194 192 186 166 151 103 138 137 131 86 149 210 320 262 11 57 42 115 193 198 198 219 213 172 217 190 265 98 96 360 106 44 238 281 82 53 269 292 113 97 97 100 92 91 100 106 101 92 96 101 92 85 73 75
182 178 176 151 137 116 128 154 132 35 336 42 122 120 100 210 45 190 186 229 229 213 196 174 144 149 66 57 67 75 90 228 22 42 71 190 233 319 56 97 85 90 106 107 101 99 101 100 98 109 111 100 99 80
170 170 165 150 134 118 97 117 86 20 33 84 142 107 169 192 232 200 197 200 238 197 166 122 101 134 136 69 131 106 237 75 60 168 220 228 210 133 77 86 115 118 118 113 114 119 113 105 91 79 79 92 89 71
161 159 153 137 124 125 121 122 121 29 18 13 69 184 216 238 242 234 214 281 266 152 131 86 55 90 42 105 78 88 93 249 214 216 210 180 153 111 112 115 107 110 106 96 96 96 97 93 86 74 74 89 83 74
144 132 125 141 134 135 133 92 336 9 276 258 238 341 307 96 315 328 194 247 227 121 86 56 101 75 80 119 114 202 164 223 237 208 164 126 128 114 121 108 100 104 107 112 115 119 113 109 109 112 98 96 99 106
143 78 144 138 139 143 87 79 302 320 336 352 333 286 268 246 250 297 273 302 348 76 105 110 91 158 117 90 167 200 199 227 168 111 90 102 124 129 129 122 121 122 123 129 121 114 123 126 122 101 101 101 99 96
66 133 135 146 137 113 35 304 11 359 347 340 57 308 314 271 316 328 326 301 14 102 119 157 131 77 118 142 248 223 146 80 44 105 137 135 129 142 138 134 132 138 133 135 135 134 131 139 127 137 142 149 109 88
137 141 151 152 175 153 125 254 46 286 293 306 302 324 291 290 284 284 285 300 238 185 104 46 84 138 196 217 196 132 180 146 144 127 111 128 147 148 137 129 136 142 146 141 145 149 148 162 157 163 141 145 140 179
121 110 126 259 12 52 42 53 147 80 20 306 322 342 296 275 307 320 337 10 15 41 47 77 184 204 174 201 193 152 153 154 127 108 110 123 146 143 154 157 160 155 134 110 104 106 105 64 62 129 131 148 145 184
60 284 307 353 31 55 84 26 17 236 306 348 284 336 300 340 26 10 5 335 43 100 126 220 207 219 171 142 133 126 141 143 162 153 167 160 194 163 168 170 159 156 150 158 158 175 163 199 180 154 148 176 175 178
264 286 14 10 43 29 76 329 161 284 44 265 342 354 336 1 328 312 243 41 285 246 181 171 207 151 144 137 132 153 151 127 124 105 99 113 132 147 163 171 161 184 183 207 171 179 198 206 169 172 142 182 125 134
13 9 39 359 43 45 298 5 42 6 30 332 0 352 331 332 347 287 13 224 259 242 185 163 169 136 131 105 97 89 126 129 122 130 140 131 119 115 115 158 176 156 166 227 195 184 188 202 183 158 145 143 142 153
30 67 9 0 105 275 13 4 2 3 351 354 337 301 287 259 344 45 254 243 244 249 154 157 125 96 43 63 112 139 107 113 118 103 135 132 122 119 145 146 137 165 185 170 172 178 182 190 167 164 155 164 171 164
46 310 98 308 252 123 125 1 282 353 304 258 262 272 257 126 147 250 237 263 222 200 173 125 121 132 139 140 87 163 341 145 142 141 205 153 115 93 98 249 238 225 174 155 185 186 182 179 176 172 164 159 173 188
304 254 157 206 196 183 171 209 190 199 220 240 231 253 170 157 221 244 236 225 205 181 169 173 157 137 179 166 146 177 202 148 123 127 218 183 188 170 183 190 221 275 215 199 182 183 180 173 178 178 179 185 181 183
240 253 230 220 158 147 226 285 175 146 194 213 226 197 177 218 231 242 272 240 194 215 189 161 155 156 167 171 175 153 142 158 154 176 155 149 169 182 168 185 210 231 202 183 187 185 175 174 173 188 190 170 181 189
224 235 189 184 195 171 177 165 260 215 213 208 186 196 210 214 245 241 226 288 136 98 87 92 139 142 130 130 125 119 92 96 85 74 52 2 251 226 216 217 218 223 240 199 204 197 191 182 177 183 175 185 199 212
240 235 160 194 197 150 195 213 248 239 193 161 204 215 243 239 241 175 155 136 107 92 85 86 48 77 75 73 82 110 138 145 146 184 222 249 291 275 204 207 213 220 212 204 203 216 203 189 182 182 194 191 197 181
243 176 183 176 203 205 200 192 220 210 168 202 176 54 25 0 341 11 111 117 121 144 167 153 149 138 147 148 178 242 222 194 192 180 200 226 234 233 191 207 208 211 203 194 191 195 100 198 177 161 150 146 158 173
128 109 114 201 251 229 200 188 199 160 146 135 126 113 165 216 339 358 159 207 154 131 133 132 157 188 163 181 186 208 253 222 216 225 222 234 237 248 253 255 225 187 195 190 183 197 206 203 196 184 174 170 174 176
208 196 160 217 256 284 108 107 143 99 71 87 93 104 78 66 215 285 244 122 99 127 199 169 176 210 204 196 199 210 194 195 190 209 210 214 231 248 271 265 194 185 187 175 185 191 211 204 190 183 183 172 176 187
184 171 157 266 264 184 206 128 168 158 127 174 193 178 172 164 200 230 20 12 190 184 188 193 192 170 169 173 200 230 223 222 223 218 246 252 252 266 284 268 217 194 187 166 175 189 191 183 190 174 216 252 207 204